Von / Nach
Hinflug - Rückflug
Erwachsene / Kinder
Promocode
Nächste Ankünfte Flughafen St.Gallen-Altenrhein

ZeitErw.vonFlugInfo
09:1009:10WienPE101
gelandet
11:4511:45KefaloniaPE537
gelandet
14:1514:15WienPE103
erwartet
17:2517:25WienPE105
planmässig
18:5018:50PalmaPE503
planmässig
20:5520:55WienPE107
planmässig
Nächste Abflüge Flughafen St.Gallen-Altenrhein

ZeitGeplantnachFlugInfo
06:3006:46WienPE100
abgeflogen
06:4506:55KefaloniaPE536
abgeflogen
09:5010:01WienPE102
abgeflogen
14:1014:10PalmaPE502
planmässig
14:4514:45WienPE104
planmässig
18:1018:10WienPE106
planmässig

Flugplan

Bitte wählen Sie Ihren gewünschten Abflug- und Zielflughafen aus.


Live aus Altenrhein
LIVE
LSZR 241150Z 28005KT 9999 FEW060 20/10 Q1015 NOSIG RMK H
Zeitraffer heute
2019-05-24 00:14:48
LSZR 232150Z AUTO VRB01KT CAVOK 11/09 Q1016
Zeitraffer gestern
2019-05-23 00:14:54
LSZR 222150Z AUTO VRB01KT 9999 NCD 12/10 Q1020

Wien

Samstags-Special: Altenrhein-Wien für EUR 89.-.

 

Jetzt buchen

Menorca

Ab EUR 299.- hin & zurück.

 

Jetzt buchen

Kalabrien

Ab EUR 329.- hin & zurück.

 

Jetzt buchen

Ibiza

Ab EUR 279.- hin & zurück.

 

Jetzt buchen

Mallorca

Ab EUR 349.- hin & zurück.

 

Jetzt buchen

General Aviation

Business & General Aviation LSZR.

 

More information

 

 Shuttlebus


Nutzen Sie unseren

Shuttlebus zwischen Altenrhein

und Dornbirn & Bregenz.

 

Mehr dazu

 

People's Online-Shop


Von der Überraschung an

Bord über Badetücher bis

zum Flugzeugmodell.

 

Mehr dazu


News


Aktuelles von People's

und dem Flughafen

St.Gallen-Altenrhein.

 

Mehr dazu

 

Ad-hoc Charter


Chartern Sie eine unserer

Embraer170 für Ihren eigenen

Anlass oder ACMI-Einsätze.


Mehr dazu

  

 

Teile dein People's-Erlebnis mit uns:

 

#peoplesairline bei Instagram